Year,Month,Day,Hour,Minute,Value (Times are PST for temperature in C)
2014,02,20,00,00,3.30
2014,02,20,00,01,3.30
2014,02,20,00,02,3.30
2014,02,20,00,03,3.30
2014,02,20,00,04,3.30
2014,02,20,00,05,3.30
2014,02,20,00,06,3.30
2014,02,20,00,07,3.30
2014,02,20,00,08,3.30
2014,02,20,00,09,3.30
2014,02,20,00,10,3.30
2014,02,20,00,11,3.20
2014,02,20,00,12,3.20
2014,02,20,00,13,3.20
2014,02,20,00,14,3.20
2014,02,20,00,15,3.20
2014,02,20,00,16,3.20
2014,02,20,00,17,3.20
2014,02,20,00,18,3.10
2014,02,20,00,19,3.10
2014,02,20,00,20,3.10
2014,02,20,00,21,3.10
2014,02,20,00,22,3.10
2014,02,20,00,23,3.10
2014,02,20,00,24,3.10
2014,02,20,00,25,3.10
2014,02,20,00,26,3.10
2014,02,20,00,27,3.10
2014,02,20,00,28,3.10
2014,02,20,00,29,3.20
2014,02,20,00,30,3.20
2014,02,20,00,31,3.20
2014,02,20,00,32,3.20
2014,02,20,00,33,3.20
2014,02,20,00,34,3.20
2014,02,20,00,35,3.20
2014,02,20,00,36,3.20
2014,02,20,00,37,3.20
2014,02,20,00,38,3.20
2014,02,20,00,39,3.20
2014,02,20,00,40,3.20
2014,02,20,00,41,3.20
2014,02,20,00,42,3.20
2014,02,20,00,43,3.20
2014,02,20,00,44,3.20
2014,02,20,00,45,3.20
2014,02,20,00,46,3.20
2014,02,20,00,47,3.20
2014,02,20,00,48,3.20
2014,02,20,00,49,3.20
2014,02,20,00,50,3.20
2014,02,20,00,51,3.20
2014,02,20,00,52,3.20
2014,02,20,00,53,3.20
2014,02,20,00,54,3.20
2014,02,20,00,55,3.20
2014,02,20,00,56,3.20
2014,02,20,00,57,3.20
2014,02,20,00,58,3.20
2014,02,20,00,59,3.20
2014,02,20,01,00,3.20
2014,02,20,01,01,3.20
2014,02,20,01,02,3.20
2014,02,20,01,03,3.20
2014,02,20,01,04,3.20
2014,02,20,01,05,3.20
2014,02,20,01,06,3.20
2014,02,20,01,07,3.20
2014,02,20,01,08,3.20
2014,02,20,01,09,3.20
2014,02,20,01,10,3.20
2014,02,20,01,11,3.20
2014,02,20,01,12,3.20
2014,02,20,01,13,3.20
2014,02,20,01,14,3.10
2014,02,20,01,15,3.10
2014,02,20,01,16,3.10
2014,02,20,01,17,3.10
2014,02,20,01,18,3.10
2014,02,20,01,19,3.20
2014,02,20,01,20,3.20
2014,02,20,01,21,3.20
2014,02,20,01,22,3.20
2014,02,20,01,23,3.30
2014,02,20,01,24,3.30
2014,02,20,01,25,3.30
2014,02,20,01,26,3.30
2014,02,20,01,27,3.30
2014,02,20,01,28,3.40
2014,02,20,01,29,3.40
2014,02,20,01,30,3.40
2014,02,20,01,31,3.50
2014,02,20,01,32,3.50
2014,02,20,01,33,3.60
2014,02,20,01,34,3.60
2014,02,20,01,35,3.60
2014,02,20,01,36,3.50
2014,02,20,01,37,3.50
2014,02,20,01,38,3.60
2014,02,20,01,39,3.60
2014,02,20,01,40,3.50
2014,02,20,01,41,3.50
2014,02,20,01,42,3.50
2014,02,20,01,43,3.50
2014,02,20,01,44,3.50
2014,02,20,01,45,3.50
2014,02,20,01,46,3.50
2014,02,20,01,47,3.50
2014,02,20,01,48,3.50
2014,02,20,01,49,3.50
2014,02,20,01,50,3.50
2014,02,20,01,51,3.50
2014,02,20,01,52,3.40
2014,02,20,01,53,3.40
2014,02,20,01,54,3.40
2014,02,20,01,55,3.40
2014,02,20,01,56,3.40
2014,02,20,01,57,3.40
2014,02,20,01,58,3.40
2014,02,20,01,59,3.40
2014,02,20,02,00,3.40
2014,02,20,02,01,3.40
2014,02,20,02,02,3.30
2014,02,20,02,03,3.30
2014,02,20,02,04,3.30
2014,02,20,02,05,3.30
2014,02,20,02,06,3.30
2014,02,20,02,07,3.30
2014,02,20,02,08,3.30
2014,02,20,02,09,3.30
2014,02,20,02,10,3.30
2014,02,20,02,11,3.30
2014,02,20,02,12,3.30
2014,02,20,02,13,3.30
2014,02,20,02,14,3.30
2014,02,20,02,15,3.30
2014,02,20,02,16,3.30
2014,02,20,02,17,3.30
2014,02,20,02,18,3.30
2014,02,20,02,19,3.30
2014,02,20,02,20,3.30
2014,02,20,02,21,3.30
2014,02,20,02,22,3.30
2014,02,20,02,23,3.30
2014,02,20,02,24,3.30
2014,02,20,02,25,3.30
2014,02,20,02,26,3.30
2014,02,20,02,27,3.30
2014,02,20,02,28,3.40
2014,02,20,02,29,3.40
2014,02,20,02,30,3.40
2014,02,20,02,31,3.40
2014,02,20,02,32,3.40
2014,02,20,02,33,3.30
2014,02,20,02,34,3.30
2014,02,20,02,35,3.30
2014,02,20,02,36,3.30
2014,02,20,02,37,3.30
2014,02,20,02,38,3.30
2014,02,20,02,39,3.30
2014,02,20,02,40,3.30
2014,02,20,02,41,3.30
2014,02,20,02,42,3.30
2014,02,20,02,43,3.30
2014,02,20,02,44,3.30
2014,02,20,02,45,3.30
2014,02,20,02,46,3.40
2014,02,20,02,47,3.40
2014,02,20,02,48,3.40
2014,02,20,02,49,3.30
2014,02,20,02,50,3.30
2014,02,20,02,51,3.30
2014,02,20,02,52,3.30
2014,02,20,02,53,3.30
2014,02,20,02,54,3.30
2014,02,20,02,55,3.30
2014,02,20,02,56,3.30
2014,02,20,02,57,3.30
2014,02,20,02,58,3.30
2014,02,20,02,59,3.30
2014,02,20,03,00,3.30
2014,02,20,03,01,3.30
2014,02,20,03,02,3.30
2014,02,20,03,06,3.30
2014,02,20,03,07,3.40
2014,02,20,03,08,3.40
2014,02,20,03,09,3.40
2014,02,20,03,10,3.40
2014,02,20,03,11,3.40
2014,02,20,03,12,3.30
2014,02,20,03,13,3.30
2014,02,20,03,14,3.30
2014,02,20,03,15,3.30
2014,02,20,03,16,3.30
2014,02,20,03,17,3.30
2014,02,20,03,18,3.30
2014,02,20,03,19,3.30
2014,02,20,03,20,3.40
2014,02,20,03,21,3.40
2014,02,20,03,22,3.40
2014,02,20,03,23,3.40
2014,02,20,03,24,3.40
2014,02,20,03,25,3.40
2014,02,20,03,26,3.40
2014,02,20,03,27,3.30
2014,02,20,03,28,3.30
2014,02,20,03,29,3.30
2014,02,20,03,30,3.30
2014,02,20,03,31,3.30
2014,02,20,03,32,3.30
2014,02,20,03,33,3.30
2014,02,20,03,34,3.30
2014,02,20,03,35,3.30
2014,02,20,03,36,3.30
2014,02,20,03,37,3.30
2014,02,20,03,38,3.40
2014,02,20,03,39,3.40
2014,02,20,03,40,3.40
2014,02,20,03,41,3.50
2014,02,20,03,42,3.50
2014,02,20,03,43,3.50
2014,02,20,03,44,3.50
2014,02,20,03,45,3.50
2014,02,20,03,46,3.50
2014,02,20,03,47,3.40
2014,02,20,03,48,3.40
2014,02,20,03,49,3.40
2014,02,20,03,50,3.40
2014,02,20,03,51,3.40
2014,02,20,03,52,3.40
2014,02,20,03,53,3.30
2014,02,20,03,54,3.30
2014,02,20,03,55,3.30
2014,02,20,03,56,3.30
2014,02,20,03,57,3.30
2014,02,20,03,58,3.30
2014,02,20,03,59,3.30
2014,02,20,04,00,3.30
2014,02,20,04,01,3.30
2014,02,20,04,02,3.30
2014,02,20,04,03,3.30
2014,02,20,04,04,3.30
2014,02,20,04,05,3.30
2014,02,20,04,06,3.30
2014,02,20,04,07,3.50
2014,02,20,04,08,3.60
2014,02,20,04,09,3.70
2014,02,20,04,10,3.80
2014,02,20,04,11,3.90
2014,02,20,04,12,3.90
2014,02,20,04,13,4.00
2014,02,20,04,14,4.10
2014,02,20,04,15,4.20
2014,02,20,04,16,4.20
2014,02,20,04,17,4.10
2014,02,20,04,18,4.10
2014,02,20,04,19,4.10
2014,02,20,04,20,4.10
2014,02,20,04,21,4.10
2014,02,20,04,22,4.10
2014,02,20,04,23,4.00
2014,02,20,04,24,4.00
2014,02,20,04,25,3.90
2014,02,20,04,26,4.00
2014,02,20,04,27,4.10
2014,02,20,04,28,4.20
2014,02,20,04,29,4.30
2014,02,20,04,30,4.30
2014,02,20,04,31,4.40
2014,02,20,04,32,4.60
2014,02,20,04,33,4.60
2014,02,20,04,34,4.70
2014,02,20,04,35,4.70
2014,02,20,04,36,4.70
2014,02,20,04,37,4.70
2014,02,20,04,38,4.60
2014,02,20,04,39,4.60
2014,02,20,04,40,4.50
2014,02,20,04,41,4.50
2014,02,20,04,42,4.40
2014,02,20,04,43,4.40
2014,02,20,04,44,4.40
2014,02,20,04,45,4.30
2014,02,20,04,46,4.30
2014,02,20,04,47,4.30
2014,02,20,04,48,4.30
2014,02,20,04,49,4.30
2014,02,20,04,50,4.30
2014,02,20,04,51,4.20
2014,02,20,04,52,4.20
2014,02,20,04,53,4.10
2014,02,20,04,54,4.10
2014,02,20,04,55,4.10
2014,02,20,04,56,4.10
2014,02,20,04,57,4.10
2014,02,20,04,58,4.20
2014,02,20,04,59,4.20
2014,02,20,05,00,4.20
2014,02,20,05,01,4.30
2014,02,20,05,02,4.30
2014,02,20,05,03,4.40
2014,02,20,05,04,4.40
2014,02,20,05,05,4.50
2014,02,20,05,06,4.60
2014,02,20,05,07,4.60
2014,02,20,05,08,4.60
2014,02,20,05,09,4.70
2014,02,20,05,10,4.70
2014,02,20,05,11,4.70
2014,02,20,05,12,4.70
2014,02,20,05,13,4.70
2014,02,20,05,14,4.70
2014,02,20,05,15,4.80
2014,02,20,05,16,4.80
2014,02,20,05,17,4.80
2014,02,20,05,18,4.80
2014,02,20,05,19,4.80
2014,02,20,05,20,4.90
2014,02,20,05,21,5.00
2014,02,20,05,22,5.10
2014,02,20,05,23,5.30
2014,02,20,05,24,5.40
2014,02,20,05,25,5.40
2014,02,20,05,26,5.40
2014,02,20,05,27,5.50
2014,02,20,05,28,5.50
2014,02,20,05,29,5.50
2014,02,20,05,30,5.60
2014,02,20,05,31,5.70
2014,02,20,05,32,5.70
2014,02,20,05,33,5.70
2014,02,20,05,34,5.70
2014,02,20,05,35,5.70
2014,02,20,05,36,5.70
2014,02,20,05,37,5.60
2014,02,20,05,38,5.60
2014,02,20,05,39,5.60
2014,02,20,05,40,5.60
2014,02,20,05,41,5.60
2014,02,20,05,42,5.60
2014,02,20,05,43,5.60
2014,02,20,05,44,5.60
2014,02,20,05,45,5.60
2014,02,20,05,46,5.60
2014,02,20,05,47,5.60
2014,02,20,05,48,5.70
2014,02,20,05,49,5.70
2014,02,20,05,50,5.70
2014,02,20,05,51,5.80
2014,02,20,05,52,5.80
2014,02,20,05,53,5.90
2014,02,20,05,54,5.90
2014,02,20,05,55,5.90
2014,02,20,05,56,5.90
2014,02,20,05,57,5.90
2014,02,20,05,58,5.80
2014,02,20,05,59,5.80
2014,02,20,06,00,5.80
2014,02,20,06,01,5.80
2014,02,20,06,02,5.70
2014,02,20,06,03,5.70
2014,02,20,06,04,5.70
2014,02,20,06,05,5.70
2014,02,20,06,06,5.70
2014,02,20,06,07,5.70
2014,02,20,06,08,5.70
2014,02,20,06,09,5.70
2014,02,20,06,10,5.70
2014,02,20,06,11,5.70
2014,02,20,06,12,5.70
2014,02,20,06,13,5.70
2014,02,20,06,14,5.70
2014,02,20,06,15,5.70
2014,02,20,06,16,5.70
2014,02,20,06,17,5.70
2014,02,20,06,18,5.80
2014,02,20,06,19,5.80
2014,02,20,06,20,5.80
2014,02,20,06,21,5.80
2014,02,20,06,22,5.80
2014,02,20,06,23,5.80
2014,02,20,06,24,5.80
2014,02,20,06,25,5.80
2014,02,20,06,26,5.80
2014,02,20,06,27,5.80
2014,02,20,06,28,5.80
2014,02,20,06,29,5.70
2014,02,20,06,30,5.70
2014,02,20,06,31,5.70
2014,02,20,06,32,5.70
2014,02,20,06,33,5.70
2014,02,20,06,34,5.60
2014,02,20,06,35,5.60
2014,02,20,06,36,5.60
2014,02,20,06,37,5.60
2014,02,20,06,38,5.60
2014,02,20,06,39,5.60
2014,02,20,06,40,5.60
2014,02,20,06,41,5.50
2014,02,20,06,42,5.50
2014,02,20,06,43,5.50
2014,02,20,06,44,5.40
2014,02,20,06,45,5.40
2014,02,20,06,46,5.40
2014,02,20,06,47,5.40
2014,02,20,06,48,5.40
2014,02,20,06,49,5.40
2014,02,20,06,50,5.40
2014,02,20,06,51,5.40
2014,02,20,06,52,5.40
2014,02,20,06,53,5.40
2014,02,20,06,54,5.40
2014,02,20,06,55,5.40
2014,02,20,06,56,5.50
2014,02,20,06,57,5.50
2014,02,20,06,58,5.50
2014,02,20,06,59,5.50
2014,02,20,07,00,5.50
2014,02,20,07,01,5.60
2014,02,20,07,02,5.50
2014,02,20,07,03,5.50
2014,02,20,07,04,5.40
2014,02,20,07,05,5.40
2014,02,20,07,06,5.30
2014,02,20,07,07,5.20
2014,02,20,07,08,5.20
2014,02,20,07,09,5.20
2014,02,20,07,10,5.10
2014,02,20,07,11,5.20
2014,02,20,07,12,5.20
2014,02,20,07,13,5.20
2014,02,20,07,14,5.30
2014,02,20,07,15,5.30
2014,02,20,07,16,5.30
2014,02,20,07,17,5.30
2014,02,20,07,18,5.30
2014,02,20,07,19,5.40
2014,02,20,07,20,5.40
2014,02,20,07,21,5.50
2014,02,20,07,22,5.50
2014,02,20,07,23,5.60
2014,02,20,07,24,5.60
2014,02,20,07,25,5.60
2014,02,20,07,26,5.70
2014,02,20,07,27,5.70
2014,02,20,07,28,5.70
2014,02,20,07,29,5.70
2014,02,20,07,30,5.70
2014,02,20,07,31,5.80
2014,02,20,07,32,5.70
2014,02,20,07,33,5.70
2014,02,20,07,34,5.70
2014,02,20,07,35,5.80
2014,02,20,07,36,5.80
2014,02,20,07,37,5.80
2014,02,20,07,38,5.80
2014,02,20,07,39,5.90
2014,02,20,07,40,5.90
2014,02,20,07,41,5.90
2014,02,20,07,42,5.90
2014,02,20,07,43,5.90
2014,02,20,07,44,5.90
2014,02,20,07,45,5.80
2014,02,20,07,46,5.80
2014,02,20,07,47,5.70
2014,02,20,07,48,5.70
2014,02,20,07,49,5.80
2014,02,20,07,50,5.70
2014,02,20,07,51,5.70
2014,02,20,07,52,5.70
2014,02,20,07,53,5.70
2014,02,20,07,54,5.70
2014,02,20,07,55,5.70
2014,02,20,07,56,5.70
2014,02,20,07,57,5.70
2014,02,20,07,58,5.70
2014,02,20,07,59,5.70
2014,02,20,08,00,5.60
2014,02,20,08,01,5.60
2014,02,20,08,02,5.60
2014,02,20,08,03,5.60
2014,02,20,08,04,5.60
2014,02,20,08,05,5.70
2014,02,20,08,06,5.70
2014,02,20,08,07,5.70
2014,02,20,08,08,5.70
2014,02,20,08,09,5.70
2014,02,20,08,10,5.70
2014,02,20,08,11,5.70
2014,02,20,08,12,5.70
2014,02,20,08,13,5.70
2014,02,20,08,14,5.70
2014,02,20,08,15,5.70
2014,02,20,08,16,5.70
2014,02,20,08,17,5.70
2014,02,20,08,18,5.70
2014,02,20,08,19,5.70
2014,02,20,08,20,5.70
2014,02,20,08,21,5.70
2014,02,20,08,22,5.70
2014,02,20,08,23,5.70
2014,02,20,08,24,5.70
2014,02,20,08,25,5.70
2014,02,20,08,26,5.80
2014,02,20,08,27,5.80
2014,02,20,08,28,5.80
2014,02,20,08,29,5.80
2014,02,20,08,30,5.80
2014,02,20,08,31,5.80
2014,02,20,08,32,5.80
2014,02,20,08,33,5.80
2014,02,20,08,34,5.90
2014,02,20,08,35,5.90
2014,02,20,08,36,5.90
2014,02,20,08,37,5.90
2014,02,20,08,38,5.90
2014,02,20,08,39,5.90
2014,02,20,08,40,5.90
2014,02,20,08,41,5.90
2014,02,20,08,42,5.90
2014,02,20,08,43,6.00
2014,02,20,08,44,6.00
2014,02,20,08,45,6.00
2014,02,20,08,46,6.10
2014,02,20,08,47,6.10
2014,02,20,08,48,6.10
2014,02,20,08,49,6.10
2014,02,20,08,50,6.10
2014,02,20,08,51,6.10
2014,02,20,08,52,6.10
2014,02,20,08,53,6.20
2014,02,20,08,54,6.20
2014,02,20,08,55,6.20
2014,02,20,08,56,6.20
2014,02,20,08,57,6.20
2014,02,20,08,58,6.30
2014,02,20,08,59,6.30
2014,02,20,09,00,6.30
2014,02,20,09,01,6.30
2014,02,20,09,02,6.30
2014,02,20,09,03,6.30
2014,02,20,09,04,6.40
2014,02,20,09,05,6.40
2014,02,20,09,06,6.40
2014,02,20,09,07,6.40
2014,02,20,09,08,6.40
2014,02,20,09,09,6.40
2014,02,20,09,10,6.40
2014,02,20,09,11,6.40
2014,02,20,09,12,6.50
2014,02,20,09,13,6.50
2014,02,20,09,14,6.50
2014,02,20,09,15,6.50
2014,02,20,09,16,6.50
2014,02,20,09,17,6.50
2014,02,20,09,18,6.50
2014,02,20,09,19,6.60
2014,02,20,09,20,6.60
2014,02,20,09,21,6.60
2014,02,20,09,22,6.70
2014,02,20,09,23,6.70
2014,02,20,09,24,6.70
2014,02,20,09,25,6.70
2014,02,20,09,26,6.70
2014,02,20,09,27,6.70
2014,02,20,09,28,6.70
2014,02,20,09,29,6.80
2014,02,20,09,30,6.80
2014,02,20,09,31,6.80
2014,02,20,09,32,6.70
2014,02,20,09,33,6.70
2014,02,20,09,34,6.70
2014,02,20,09,35,6.70
2014,02,20,09,36,6.70
2014,02,20,09,37,6.60
2014,02,20,09,38,6.60
2014,02,20,09,39,6.50
2014,02,20,09,40,6.40
2014,02,20,09,41,6.40
2014,02,20,09,42,6.40
2014,02,20,09,43,6.40
2014,02,20,09,44,6.40
2014,02,20,09,45,6.40
2014,02,20,09,46,6.40
2014,02,20,09,47,6.40
2014,02,20,09,48,6.40
2014,02,20,09,49,6.40
2014,02,20,09,50,6.40
2014,02,20,09,51,6.40
2014,02,20,09,52,6.40
2014,02,20,09,53,6.40
2014,02,20,09,54,6.40
2014,02,20,09,55,6.50
2014,02,20,09,56,6.50
2014,02,20,09,57,6.50
2014,02,20,09,58,6.50
2014,02,20,09,59,6.50
2014,02,20,10,00,6.50
2014,02,20,10,01,6.50
2014,02,20,10,02,6.60
2014,02,20,10,03,6.50
2014,02,20,10,04,6.50
2014,02,20,10,05,6.50
2014,02,20,10,06,6.50
2014,02,20,10,07,6.50
2014,02,20,10,08,6.50
2014,02,20,10,09,6.50
2014,02,20,10,10,6.50
2014,02,20,10,11,6.50
2014,02,20,10,12,6.50
2014,02,20,10,13,6.60
2014,02,20,10,14,6.60
2014,02,20,10,15,6.60
2014,02,20,10,16,6.60
2014,02,20,10,17,6.70
2014,02,20,10,18,6.70
2014,02,20,10,19,6.70
2014,02,20,10,20,6.70
2014,02,20,10,21,6.70
2014,02,20,10,22,6.70
2014,02,20,10,23,6.70
2014,02,20,10,24,6.70
2014,02,20,10,25,6.70
2014,02,20,10,26,6.70
2014,02,20,10,27,6.70
2014,02,20,10,28,6.70
2014,02,20,10,29,6.70
2014,02,20,10,30,6.80
2014,02,20,10,31,6.80
2014,02,20,10,32,6.80
2014,02,20,10,33,6.80
2014,02,20,10,34,6.80
2014,02,20,10,35,6.80
2014,02,20,10,36,6.90
2014,02,20,10,37,6.80
2014,02,20,10,38,6.90
2014,02,20,10,39,6.90
2014,02,20,10,40,6.90
2014,02,20,10,41,6.90
2014,02,20,10,42,6.80
2014,02,20,10,43,6.80
2014,02,20,10,44,6.80
2014,02,20,10,45,6.70
2014,02,20,10,46,6.70
2014,02,20,10,47,6.70
2014,02,20,10,48,6.70
2014,02,20,10,49,6.80
2014,02,20,10,50,6.80
2014,02,20,10,51,6.80
2014,02,20,10,52,6.80
2014,02,20,10,53,6.80
2014,02,20,10,54,6.90
2014,02,20,10,55,6.90
2014,02,20,10,56,6.90
2014,02,20,10,57,6.90
2014,02,20,10,58,6.90
2014,02,20,10,59,6.90
2014,02,20,11,00,6.90
2014,02,20,11,01,6.90
2014,02,20,11,02,6.90
2014,02,20,11,03,6.90
2014,02,20,11,04,6.80
2014,02,20,11,05,6.80
2014,02,20,11,06,6.80
2014,02,20,11,07,6.90
2014,02,20,11,08,6.80
2014,02,20,11,09,6.80
2014,02,20,11,10,6.90
2014,02,20,11,11,6.90
2014,02,20,11,12,6.90
2014,02,20,11,13,6.90
2014,02,20,11,14,6.90
2014,02,20,11,15,6.90
2014,02,20,11,16,6.90
2014,02,20,11,17,6.90
2014,02,20,11,18,7.00
2014,02,20,11,19,7.00
2014,02,20,11,20,7.00
2014,02,20,11,21,7.00
2014,02,20,11,22,7.00
2014,02,20,11,23,6.90
2014,02,20,11,24,6.90
2014,02,20,11,25,6.90
2014,02,20,11,26,6.90
2014,02,20,11,27,6.90
2014,02,20,11,28,6.90
2014,02,20,11,29,6.90
2014,02,20,11,30,6.90
2014,02,20,11,31,7.00
2014,02,20,11,32,7.00
2014,02,20,11,33,7.00
2014,02,20,11,34,7.10
2014,02,20,11,35,7.10
2014,02,20,11,36,7.10
2014,02,20,11,37,7.10
2014,02,20,11,38,7.10
2014,02,20,11,39,7.10
2014,02,20,11,40,7.00
2014,02,20,11,41,7.00
2014,02,20,11,42,6.90
2014,02,20,11,43,6.80
2014,02,20,11,44,6.80
2014,02,20,11,45,6.80
2014,02,20,11,46,6.80
2014,02,20,11,47,6.70
2014,02,20,11,48,6.80
2014,02,20,11,49,6.80
2014,02,20,11,50,6.80
2014,02,20,11,51,6.80
2014,02,20,11,52,6.70
2014,02,20,11,53,6.70
2014,02,20,11,54,6.70
2014,02,20,11,55,6.80
2014,02,20,11,56,6.70
2014,02,20,11,57,6.70
2014,02,20,11,58,6.70
2014,02,20,11,59,6.80
2014,02,20,12,00,6.80
2014,02,20,12,01,6.80
2014,02,20,12,02,6.80
2014,02,20,12,03,6.80
2014,02,20,12,04,6.80
2014,02,20,12,05,6.80
2014,02,20,12,06,6.90
2014,02,20,12,07,6.90
2014,02,20,12,08,6.90
2014,02,20,12,09,7.00
2014,02,20,12,10,7.00
2014,02,20,12,11,7.00
2014,02,20,12,12,7.00
2014,02,20,12,13,7.10
2014,02,20,12,14,7.10
2014,02,20,12,15,7.10
2014,02,20,12,16,7.10
2014,02,20,12,17,7.10
2014,02,20,12,18,7.00
2014,02,20,12,19,7.00
2014,02,20,12,20,6.90
2014,02,20,12,21,6.90
2014,02,20,12,22,6.90
2014,02,20,12,23,6.90
2014,02,20,12,24,6.90
2014,02,20,12,25,6.90
2014,02,20,12,26,6.90
2014,02,20,12,27,6.90
2014,02,20,12,28,6.80
2014,02,20,12,29,6.80
2014,02,20,12,30,6.80
2014,02,20,12,31,6.80
2014,02,20,12,32,6.80
2014,02,20,12,33,6.80
2014,02,20,12,34,6.80
2014,02,20,12,35,6.80
2014,02,20,12,36,6.80
2014,02,20,12,37,6.80
2014,02,20,12,38,6.80
2014,02,20,12,39,6.80
2014,02,20,12,40,6.80
2014,02,20,12,41,6.80
2014,02,20,12,42,6.80
2014,02,20,12,43,6.80
2014,02,20,12,44,6.80
2014,02,20,12,45,6.80
2014,02,20,12,46,6.80
2014,02,20,12,47,6.80
2014,02,20,12,48,6.80
2014,02,20,12,49,6.80
2014,02,20,12,50,6.90
2014,02,20,12,51,6.90
2014,02,20,12,52,6.90
2014,02,20,12,53,6.90
2014,02,20,12,54,7.00
2014,02,20,12,55,7.00
2014,02,20,12,56,7.10
2014,02,20,12,57,7.10
2014,02,20,12,58,7.10
2014,02,20,12,59,7.10
2014,02,20,13,00,7.10
2014,02,20,13,01,7.10
2014,02,20,13,02,7.10
2014,02,20,13,03,7.10
2014,02,20,13,04,7.10
2014,02,20,13,05,7.10
2014,02,20,13,06,7.10
2014,02,20,13,07,7.10
2014,02,20,13,08,7.10
2014,02,20,13,09,7.10
2014,02,20,13,10,7.10
2014,02,20,13,11,7.20
2014,02,20,13,12,7.20
2014,02,20,13,13,7.20
2014,02,20,13,14,7.20
2014,02,20,13,15,7.20
2014,02,20,13,16,7.10
2014,02,20,13,17,7.20
2014,02,20,13,18,7.20
2014,02,20,13,19,7.20
2014,02,20,13,20,7.20
2014,02,20,13,21,7.20
2014,02,20,13,22,7.20
2014,02,20,13,23,7.20
2014,02,20,13,24,7.10
2014,02,20,13,25,7.10
2014,02,20,13,26,7.10
2014,02,20,13,27,7.10
2014,02,20,13,28,7.20
2014,02,20,13,29,7.20
2014,02,20,13,30,7.20
2014,02,20,13,31,7.20
2014,02,20,13,32,7.20
2014,02,20,13,33,7.20
2014,02,20,13,34,7.20
2014,02,20,13,35,7.30
2014,02,20,13,36,7.30
2014,02,20,13,37,7.30
2014,02,20,13,38,7.40
2014,02,20,13,39,7.40
2014,02,20,13,40,7.40
2014,02,20,13,41,7.40
2014,02,20,13,42,7.40
2014,02,20,13,43,7.50
2014,02,20,13,44,7.50
2014,02,20,13,45,7.60
2014,02,20,13,46,7.70
2014,02,20,13,47,7.60
2014,02,20,13,48,7.60
2014,02,20,13,49,7.50
2014,02,20,13,50,7.50
2014,02,20,13,51,7.50
2014,02,20,13,52,7.50
2014,02,20,13,53,7.60
2014,02,20,13,54,7.60
2014,02,20,13,55,7.60
2014,02,20,13,56,7.60
2014,02,20,13,57,7.60
2014,02,20,13,58,7.60
2014,02,20,13,59,7.60
2014,02,20,14,00,7.60
2014,02,20,14,01,7.60
2014,02,20,14,02,7.50
2014,02,20,14,03,7.50
2014,02,20,14,04,7.40
2014,02,20,14,05,7.40
2014,02,20,14,06,7.40
2014,02,20,14,07,7.40
2014,02,20,14,08,7.40
2014,02,20,14,09,7.40
2014,02,20,14,10,7.40
2014,02,20,14,11,7.40
2014,02,20,14,12,7.30
2014,02,20,14,13,7.30
2014,02,20,14,14,7.30
2014,02,20,14,15,7.30
2014,02,20,14,16,7.20
2014,02,20,14,17,7.30
2014,02,20,14,18,7.30
2014,02,20,14,19,7.30
2014,02,20,14,20,7.30
2014,02,20,14,21,7.30
2014,02,20,14,22,7.40
2014,02,20,14,23,7.30
2014,02,20,14,24,7.30
2014,02,20,14,25,7.20
2014,02,20,14,26,7.20
2014,02,20,14,27,7.20
2014,02,20,14,28,7.20
2014,02,20,14,29,7.20
2014,02,20,14,30,7.20
2014,02,20,14,31,7.20
2014,02,20,14,32,7.30
2014,02,20,14,33,7.40
2014,02,20,14,34,7.50
2014,02,20,14,35,7.50
2014,02,20,14,36,7.60
2014,02,20,14,37,7.60
2014,02,20,14,38,7.70
2014,02,20,14,39,7.70
2014,02,20,14,40,7.70
2014,02,20,14,41,7.80
2014,02,20,14,42,7.90
2014,02,20,14,43,7.90
2014,02,20,14,44,8.00
2014,02,20,14,45,8.10
2014,02,20,14,46,8.20
2014,02,20,14,47,8.20
2014,02,20,14,48,8.30
2014,02,20,14,49,8.20
2014,02,20,14,50,8.20
2014,02,20,14,51,8.10
2014,02,20,14,52,8.10
2014,02,20,14,53,8.10
2014,02,20,14,54,8.20
2014,02,20,14,55,8.20
2014,02,20,14,56,8.20
2014,02,20,14,57,8.20
2014,02,20,14,58,8.20
2014,02,20,14,59,8.20
2014,02,20,15,00,8.20
2014,02,20,15,01,8.30
2014,02,20,15,02,8.30
2014,02,20,15,03,8.40
2014,02,20,15,04,8.40
2014,02,20,15,05,8.40
2014,02,20,15,06,8.40
2014,02,20,15,07,8.50
2014,02,20,15,08,8.50
2014,02,20,15,09,8.50
2014,02,20,15,10,8.70
2014,02,20,15,11,8.80
2014,02,20,15,12,8.90
2014,02,20,15,13,9.10
2014,02,20,15,14,9.20
2014,02,20,15,15,9.30
2014,02,20,15,16,9.40
2014,02,20,15,17,9.30
2014,02,20,15,18,9.40
2014,02,20,15,19,9.40
2014,02,20,15,20,9.40
2014,02,20,15,21,9.40
2014,02,20,15,22,9.40
2014,02,20,15,23,9.50
2014,02,20,15,24,9.50
2014,02,20,15,25,9.50
2014,02,20,15,26,9.40
2014,02,20,15,27,9.40
2014,02,20,15,28,9.30
2014,02,20,15,29,9.30
2014,02,20,15,30,9.30
2014,02,20,15,31,9.30
2014,02,20,15,32,9.30
2014,02,20,15,33,9.20
2014,02,20,15,34,9.20
2014,02,20,15,35,9.20
2014,02,20,15,36,9.10
2014,02,20,15,37,9.10
2014,02,20,15,38,9.10
2014,02,20,15,39,9.10
2014,02,20,15,40,9.10
2014,02,20,15,41,9.10
2014,02,20,15,42,9.10
2014,02,20,15,43,9.00
2014,02,20,15,44,9.00
2014,02,20,15,45,9.00
2014,02,20,15,46,9.00
2014,02,20,15,47,9.00
2014,02,20,15,48,9.00
2014,02,20,15,49,9.00
2014,02,20,15,50,9.00
2014,02,20,15,51,8.90
2014,02,20,15,52,8.90
2014,02,20,15,53,8.90
2014,02,20,15,54,8.80
2014,02,20,15,55,8.90
2014,02,20,15,56,8.90
2014,02,20,15,57,8.80
2014,02,20,15,58,8.80
2014,02,20,15,59,8.80
2014,02,20,16,00,8.80
2014,02,20,16,01,8.80
2014,02,20,16,02,8.80
2014,02,20,16,03,8.80
2014,02,20,16,04,8.80
2014,02,20,16,05,8.80
2014,02,20,16,06,8.80
2014,02,20,16,07,8.80
2014,02,20,16,08,8.70
2014,02,20,16,09,8.70
2014,02,20,16,10,8.70
2014,02,20,16,11,8.70
2014,02,20,16,12,8.70
2014,02,20,16,13,8.70
2014,02,20,16,14,8.70
2014,02,20,16,15,8.70
2014,02,20,16,16,8.70
2014,02,20,16,17,8.60
2014,02,20,16,18,8.60
2014,02,20,16,19,8.60
2014,02,20,16,20,8.50
2014,02,20,16,21,8.40
2014,02,20,16,22,8.40
2014,02,20,16,23,8.40
2014,02,20,16,24,8.40
2014,02,20,16,25,8.30
2014,02,20,16,26,8.30
2014,02,20,16,27,8.30
2014,02,20,16,28,8.20
2014,02,20,16,29,8.20
2014,02,20,16,30,8.20
2014,02,20,16,31,8.20
2014,02,20,16,32,8.20
2014,02,20,16,33,8.20
2014,02,20,16,34,8.10
2014,02,20,16,35,8.10
2014,02,20,16,36,8.00
2014,02,20,16,37,8.00
2014,02,20,16,38,7.90
2014,02,20,16,39,7.80
2014,02,20,16,40,7.70
2014,02,20,16,41,7.70
2014,02,20,16,42,7.70
2014,02,20,16,43,7.60
2014,02,20,16,44,7.60
2014,02,20,16,45,7.60
2014,02,20,16,46,7.70
2014,02,20,16,47,7.70
2014,02,20,16,48,7.70
2014,02,20,16,49,7.80
2014,02,20,16,50,7.80
2014,02,20,16,51,7.80
2014,02,20,16,52,7.80
2014,02,20,16,53,7.70
2014,02,20,16,54,7.70
2014,02,20,16,55,7.70
2014,02,20,16,56,7.60
2014,02,20,16,57,7.60
2014,02,20,16,58,7.50
2014,02,20,16,59,7.50
2014,02,20,17,00,7.40
2014,02,20,17,01,7.40
2014,02,20,17,02,7.40
2014,02,20,17,03,7.30
2014,02,20,17,04,7.30
2014,02,20,17,05,7.30
2014,02,20,17,06,7.30
2014,02,20,17,07,7.20
2014,02,20,17,08,7.20
2014,02,20,17,09,7.20
2014,02,20,17,10,7.20
2014,02,20,17,11,7.20
2014,02,20,17,12,7.20
2014,02,20,17,13,7.20
2014,02,20,17,14,7.20
2014,02,20,17,15,7.20
2014,02,20,17,16,7.20
2014,02,20,17,17,7.20
2014,02,20,17,18,7.30
2014,02,20,17,19,7.30
2014,02,20,17,20,7.30
2014,02,20,17,21,7.30
2014,02,20,17,22,7.40
2014,02,20,17,23,7.50
2014,02,20,17,24,7.50
2014,02,20,17,25,7.60
2014,02,20,17,26,7.70
2014,02,20,17,27,7.70
2014,02,20,17,28,7.70
2014,02,20,17,29,7.70
2014,02,20,17,30,7.70
2014,02,20,17,31,7.70
2014,02,20,17,32,7.70
2014,02,20,17,33,7.60
2014,02,20,17,34,7.50
2014,02,20,17,35,7.50
2014,02,20,17,36,7.40
2014,02,20,17,37,7.40
2014,02,20,17,38,7.30
2014,02,20,17,39,7.20
2014,02,20,17,40,7.20
2014,02,20,17,41,7.20
2014,02,20,17,42,7.10
2014,02,20,17,43,7.10
2014,02,20,17,44,7.00
2014,02,20,17,45,7.00
2014,02,20,17,46,6.90
2014,02,20,17,47,6.90
2014,02,20,17,48,6.80
2014,02,20,17,49,6.80
2014,02,20,17,50,6.80
2014,02,20,17,51,6.70
2014,02,20,17,52,6.70
2014,02,20,17,53,6.70
2014,02,20,17,54,6.70
2014,02,20,17,55,6.70
2014,02,20,17,56,6.60
2014,02,20,17,57,6.60
2014,02,20,17,58,6.60
2014,02,20,17,59,6.60
2014,02,20,18,00,6.60
2014,02,20,18,01,6.60
2014,02,20,18,02,6.60
2014,02,20,18,03,6.60
2014,02,20,18,04,6.50
2014,02,20,18,05,6.50
2014,02,20,18,06,6.50
2014,02,20,18,07,6.50
2014,02,20,18,08,6.50
2014,02,20,18,09,6.50